Home   Weather   Chula Vista   Past weeks

Flag for USA Past Weather in Chula Vista, California, USA — Yesterday and Last 2 Weeks

Now
90 °F

Sunny.


Feels Like: 86 °F
Forecast: 70 / 91 °F
Wind: 13 mph from West

Location: Brown Field Municipal Airport

Current Time: Sep 25, 2016 at 5:28:11 PM

Latest Report: Sep 25, 2016 at 4:53 PM


Visibility: 10 mi

Pressure: 29.87 "Hg

Humidity: 16%

Dew Point: 38 °F

Location of Chula VistaLocation

Past Weather in Chula Vista — Graph

°F

Chula Vista Temperature Yesterday

Maximum temperature yesterday: 87 °F (at 11:53 AM)
Minimum temperature yesterday: 59 °F (at 1:53 AM)
Average temperature yesterday: 72 °F

High & Low Weather Summary for the Past Weeks

 TemperatureHumidityPressure
High95 °F (Sep 25, 1:53 PM)97% (Sep 17, 2:53 AM)30.08 "Hg (Sep 17, 2:53 AM)
Low52 °F (Sep 15, 5:53 AM)14% (Sep 25, 3:53 PM)29.85 "Hg (Sep 21, 4:53 PM)
Average68 °F72%29.95 "Hg
* Reported Sep 10 3:53 PM — Sep 25 3:53 PM, Chula Vista, Weather by CustomWeather, © 2016

Note: Actual official high and low records may vary slightly from our data, if they occured in-between our weather recording intervals... More about our weather records

Advertising

Chula Vista Weather History for the Previous 24 Hours

Scroll right to see more
 ConditionsComfort  
Time TempWeatherWind HumidityBarometerVisibility
3:53 PM
Sun, Sep 25
91 °FSunny.16 mph14%29.88 "Hg10 mi
2:53 PM93 °FSunny.10 mph16%29.88 "Hg10 mi
1:53 PM95 °FSunny.10 mph15%29.90 "Hg10 mi
12:53 PM93 °FSunny.12 mph16%29.92 "Hg10 mi
11:53 AM92 °FSunny.6 mph18%29.95 "Hg10 mi
10:53 AM90 °FSunny.5 mph19%29.97 "Hg10 mi
9:53 AM84 °FSunny.No wind19%29.98 "Hg10 mi
8:53 AM78 °FSunny.No wind29%29.98 "Hg10 mi
7:53 AM69 °FSunny.6 mph44%29.98 "Hg10 mi
6:53 AM64 °FSunny.9 mph49%29.97 "Hg10 mi
5:53 AM61 °FClear.7 mph56%29.96 "Hg10 mi
4:53 AM62 °FClear.6 mph56%29.96 "Hg10 mi
3:53 AM65 °FClear.5 mph47%29.95 "Hg10 mi
2:53 AM62 °FClear.6 mph58%29.96 "Hg10 mi
1:53 AM64 °FClear.5 mph58%29.96 "Hg10 mi
12:53 AM66 °FClear.3 mph54%29.96 "Hg10 mi
11:53 PM
Sat, Sep 24
67 °FClear.5 mph59%29.97 "Hg9 mi
10:53 PM63 °FClear.7 mph70%29.98 "Hg10 mi
9:53 PM70 °FClear.No wind53%29.98 "Hg10 mi
8:53 PM70 °FClear.3 mph55%29.98 "Hg10 mi
7:53 PM70 °FClear.3 mph53%29.97 "Hg10 mi
6:53 PM73 °FClear.3 mph46%29.95 "Hg10 mi
5:53 PM78 °FSunny.9 mph32%29.94 "Hg10 mi
Weather by CustomWeather, © 2016

See weather overviewHow to use our weather pages